Hourly Data Report for May 20, 2004

TORONTO CITY
ONTARIO

43°40'00.000" N
79°24'00.000" W
112.50 m
6158355
71508
XTO

Download Data

Hourly Data (May 2004)
Hourly Data Report for May 20, 2004
TIME
LST
Temp Definition
°C
Dew Point Definition
°C
Rel Hum Definition
%
Precip. Amount Definition
mm

Wind Dir Definition
10's deg

Wind Spd Definition
km/h
Visibility Definition
km
Stn Press Definition
kPa
Hmdx Definition


Wind Chill Definition


Weather Definition


00:00 13.5 2.3 47   LegendMM LegendMM LegendMM 100.75     LegendNANA
01:00 12.7 3.8 55   LegendMM LegendMM LegendMM 100.74     LegendNANA
02:00 12.8 4.1 55   LegendMM LegendMM LegendMM 100.62     LegendNANA
03:00 12.6 4.8 59   LegendMM LegendMM LegendMM 100.58     LegendNANA
04:00 12.0 5.9 66   LegendMM LegendMM LegendMM 100.55     LegendNANA
05:00 11.6 6.6 71   LegendMM LegendMM LegendMM 100.56     LegendNANA
06:00 12.0 7.6 74   LegendMM LegendMM LegendMM 100.50     LegendNANA
07:00 13.4 8.5 72   LegendMM LegendMM LegendMM 100.45     LegendNANA
08:00 15.6 10.6 72   LegendMM LegendMM LegendMM 100.45     LegendNANA
09:00 16.4 12.6 78   LegendMM LegendMM LegendMM 100.36     LegendNANA
10:00 17.7 12.7 73   LegendMM LegendMM LegendMM 100.25     LegendNANA
11:00 17.1 12.8 76   LegendMM LegendMM LegendMM 100.19     LegendNANA
12:00 18.9 14.3 75   LegendMM LegendMM LegendMM 100.13     LegendNANA
13:00 19.5 15.7 79   LegendMM LegendMM LegendMM 100.00     LegendNANA
14:00 20.4 16.4 78   LegendMM LegendMM LegendMM 100.00 25   LegendNANA
15:00 19.7 16.7 83   LegendMM LegendMM LegendMM 99.97     LegendNANA
16:00 21.8 19.0 84   LegendMM LegendMM LegendMM 99.92 29   LegendNANA
17:00 23.2 20.2 83   LegendMM LegendMM LegendMM 99.91 31   LegendNANA
18:00 23.3 20.4 84   LegendMM LegendMM LegendMM 99.91 31   LegendNANA
19:00 22.5 20.2 87   LegendMM LegendMM LegendMM 99.92 30   LegendNANA
20:00 22.0 19.8 87   LegendMM LegendMM LegendMM 100.02 29   LegendNANA
21:00 22.5 18.6 79   LegendMM LegendMM LegendMM 100.14 29   LegendNANA
22:00 21.0 18.1 84   LegendMM LegendMM LegendMM 100.17 27   LegendNANA
23:00 19.8 17.7 88   LegendMM LegendMM LegendMM 100.18     LegendNANA

Notes on Data Quality.

Legend

  • E = Estimated
  • M = Missing
  • NA = Not Available*
  • [empty] = Indicates an unobserved value
Date modified: